Hayden, CO

3:29 PM MDT on October 17, 2017 (GMT -0600)
Yampa Valley

Weather History for KHDN - January, 2013

Change the Weather History Date:

Wednesday, January 2, 2013

  Actual Average Record
Temperature  
Mean Temperature 5 °F -  
Max Temperature 15 °F 24 °F 54 °F (1981)
Min Temperature -5 °F 0 °F -38 °F (1952)
Degree Days  
Heating Degree Days 60    
Moisture  
Dew Point 3 °F    
Average Humidity 86    
Maximum Humidity 100    
Minimum Humidity 66    
Precipitation  
Precipitation 0.00 in - - ()
Sea Level Pressure  
Sea Level Pressure 30.23 in    
Wind  
Wind Speed 4 mph (SE)    
Max Wind Speed 10 mph    
Max Gust Speed -    
Visibility 7 miles    
Events      
Averages and records for this station are not official NWS values.
T = Trace of Precipitation, MM = Missing Value Source: NWS Daily Summary

Daily Weather History Graph

Daily Weather History Graph

Search for Another Location

Airport or City:

Trip Planner

Search our weather history database for the weather conditions in past years. The results will help you decide how hot, cold, wet, or windy it might be!

Date:

Astronomy

Jan. 02, 2013 Rise Set
Actual Time 7:32 AM MST 4:54 PM MST
Civil Twilight 7:01 AM MST 5:24 PM MST
Nautical Twilight 6:27 AM MST 5:58 PM MST
Astronomical Twilight 5:54 AM MST 6:32 PM MST
Moon 10:31 PM MST (1/2) 10:14 AM MST (1/2)
Length of Visible Light 10h 23m
Length of Day
9h 21m
Waning Gibbous, 74% of the Moon is Illuminated
Jan 2
Waning Gibbous
Jan 4
Last Quarter
Jan 11
New
Jan 18
First Quarter
Jan 26
Full

Hourly Weather History & Observations

Time (MST) Temp. Windchill Dew Point Humidity Pressure Visibility Wind Dir Wind Speed Gust Speed Precip Events Conditions
12:15 AM 8.6 °F - 3.2 °F 79% 30.21 in 3.0 mi Calm Calm - N/A   Clear
12:35 AM 8.6 °F 2.0 °F 3.2 °F 79% 30.21 in 5.0 mi SE 3.5 mph - N/A   Clear
12:55 AM 8.6 °F - 5.0 °F 85% 30.20 in 4.0 mi Calm Calm - N/A   Clear
1:15 AM 8.6 °F -2.6 °F 6.8 °F 92% 30.20 in 6.0 mi SSE 6.9 mph - N/A   Clear
1:35 AM 8.6 °F -1.3 °F 6.8 °F 92% 30.20 in 9.0 mi ESE 5.8 mph - N/A   Clear
1:55 AM 8.6 °F 0.1 °F 3.2 °F 79% 30.21 in 5.0 mi East 4.6 mph - N/A   Clear
2:15 AM 8.6 °F -1.3 °F 5.0 °F 85% 30.21 in 4.0 mi ESE 5.8 mph - N/A   Clear
2:35 AM 8.6 °F 2.0 °F 5.0 °F 85% 30.20 in 4.0 mi East 3.5 mph - N/A   Clear
2:55 AM 8.6 °F -1.3 °F 6.8 °F 92% 30.20 in 4.0 mi SE 5.8 mph - N/A   Clear
3:15 AM 8.6 °F -2.6 °F 5.0 °F 85% 30.20 in 6.0 mi SE 6.9 mph - N/A   Clear
3:35 AM 8.6 °F -3.7 °F 5.0 °F 85% 30.20 in 9.0 mi SE 8.1 mph - N/A   Partly Cloudy
3:55 AM 8.6 °F -3.7 °F 5.0 °F 85% 30.19 in 5.0 mi SE 8.1 mph - N/A   Clear
4:15 AM 8.6 °F -2.6 °F 5.0 °F 85% 30.19 in 6.0 mi ESE 6.9 mph - N/A   Partly Cloudy
4:35 AM 8.6 °F -2.6 °F 5.0 °F 85% 30.18 in 5.0 mi ESE 6.9 mph - N/A   Partly Cloudy
4:55 AM 8.6 °F 2.0 °F 5.0 °F 85% 30.19 in 5.0 mi SE 3.5 mph - N/A   Clear
5:15 AM 8.6 °F - 5.0 °F 85% 30.19 in 5.0 mi Calm Calm - N/A   Partly Cloudy
5:35 AM 6.8 °F -3.5 °F 3.2 °F 85% 30.19 in 5.0 mi SSE 5.8 mph - N/A   Partly Cloudy
6:15 AM 10.4 °F 0.8 °F 6.8 °F 85% 30.20 in 5.0 mi ESE 5.8 mph - N/A   Partly Cloudy
6:55 AM 10.4 °F 0.8 °F 5.0 °F 79% 30.20 in 2.5 mi SE 5.8 mph - N/A   Mostly Cloudy
7:15 AM 8.6 °F -3.7 °F 6.8 °F 92% 30.21 in 4.0 mi SE 8.1 mph - N/A   Mostly Cloudy
7:55 AM 8.6 °F 2.0 °F 5.0 °F 85% 30.22 in 3.0 mi SE 3.5 mph - N/A   Scattered Clouds
8:15 AM 8.6 °F 2.0 °F 5.0 °F 85% 30.22 in 3.0 mi SSE 3.5 mph - N/A   Clear
8:35 AM 8.6 °F -2.6 °F 5.0 °F 85% 30.22 in 4.0 mi SE 6.9 mph - N/A   Clear
8:55 AM 8.6 °F -3.7 °F 6.8 °F 92% 30.22 in 4.0 mi ESE 8.1 mph - N/A   Clear
9:15 AM 10.4 °F 0.8 °F 6.8 °F 85% 30.22 in 3.0 mi ESE 5.8 mph - N/A   Clear
9:35 AM 10.4 °F 4.0 °F 6.8 °F 85% 30.22 in 6.0 mi SE 3.5 mph - N/A   Clear
9:55 AM 10.4 °F 0.8 °F 6.8 °F 85% 30.22 in 3.0 mi ESE 5.8 mph - N/A   Clear
10:15 AM 10.4 °F 4.0 °F 6.8 °F 85% 30.23 in 4.0 mi SE 3.5 mph - N/A   Clear
10:35 AM 8.6 °F - 3.2 °F 79% 30.23 in 5.0 mi Calm Calm - N/A   Clear
10:55 AM 10.4 °F - 6.8 °F 85% 30.22 in 7.0 mi Calm Calm - N/A   Partly Cloudy
11:15 AM 12.2 °F 6.1 °F 6.8 °F 79% 30.22 in 10.0 mi East 3.5 mph - N/A   Mostly Cloudy
11:35 AM 12.2 °F 4.3 °F 6.8 °F 79% 30.23 in 10.0 mi East 4.6 mph - N/A   Scattered Clouds
11:55 AM 15.8 °F - 10.4 °F 79% 30.22 in 10.0 mi Calm Calm - N/A   Scattered Clouds
12:15 PM 10.4 °F 0.8 °F 8.6 °F 92% 30.22 in 9.0 mi SW 5.8 mph - N/A   Mostly Cloudy
12:55 PM 10.4 °F 2.2 °F 8.6 °F 92% 30.20 in 3.0 mi West 4.6 mph - N/A   Clear
1:15 PM 10.4 °F 0.8 °F 8.6 °F 92% 30.19 in 10.0 mi West 5.8 mph - N/A   Clear
1:35 PM 12.2 °F 4.3 °F 8.6 °F 85% 30.19 in 10.0 mi WNW 4.6 mph - N/A   Clear
1:55 PM 14.0 °F - 10.4 °F 86% 30.19 in 10.0 mi Calm Calm - N/A   Clear
2:15 PM 12.2 °F 6.1 °F 8.6 °F 85% 30.19 in 10.0 mi SSW 3.5 mph - N/A   Clear
2:35 PM 12.2 °F 4.3 °F 8.6 °F 85% 30.20 in 10.0 mi SW 4.6 mph - N/A   Clear
2:55 PM 12.2 °F 6.1 °F 8.6 °F 85% 30.21 in 10.0 mi SW 3.5 mph - N/A   Clear
3:15 PM 12.2 °F - 8.6 °F 85% 30.22 in 10.0 mi Calm Calm - N/A   Clear
3:35 PM 10.4 °F 2.2 °F 6.8 °F 85% 30.22 in 10.0 mi West 4.6 mph - N/A   Clear
4:15 PM 6.8 °F -2.0 °F 1.4 °F 79% 30.23 in 10.0 mi WSW 4.6 mph - N/A   Clear
4:35 PM 6.8 °F -0.1 °F 3.2 °F 85% 30.24 in 10.0 mi WSW 3.5 mph - N/A   Clear
5:15 PM 8.6 °F 2.0 °F 6.8 °F 92% 30.23 in 10.0 mi West 3.5 mph - N/A   Clear
5:35 PM 6.8 °F - 3.2 °F 85% 30.24 in 9.0 mi Calm Calm - N/A   Clear
5:55 PM 5.0 °F -4.1 °F 1.4 °F 85% 30.24 in 5.0 mi South 4.6 mph - N/A   Clear
6:15 PM 3.2 °F - 1.4 °F 92% 30.24 in 10.0 mi Calm Calm - N/A   Clear
6:35 PM 5.0 °F - 1.4 °F 85% 30.24 in 10.0 mi Calm Calm - N/A   Clear
6:55 PM 1.4 °F -6.2 °F -4.0 °F 78% 30.24 in 0.2 mi NE 3.5 mph - N/A   Unknown
7:15 PM 1.4 °F -6.2 °F -4.0 °F 78% 30.25 in 8.0 mi ENE 3.5 mph - N/A   Clear
7:35 PM 1.4 °F -6.2 °F -0.4 °F 92% 30.25 in 0.5 mi East 3.5 mph - N/A   Unknown
7:55 PM 1.4 °F - 1.4 °F 100% 30.26 in 8.0 mi Calm Calm - N/A   Clear
8:15 PM 1.4 °F - -7.6 °F 66% 30.27 in 10.0 mi Calm Calm - N/A   Clear
8:35 PM -2.2 °F -12.5 °F -7.6 °F 78% 30.28 in 1.5 mi NNW 4.6 mph - N/A   Clear
8:55 PM -2.2 °F - -5.8 °F 85% 30.28 in 10.0 mi Calm Calm - N/A   Clear
9:15 PM -2.2 °F -12.5 °F -4.0 °F 92% 30.29 in 2.5 mi SSE 4.6 mph - N/A   Clear
9:35 PM -0.4 °F -8.3 °F -5.8 °F 78% 30.29 in 10.0 mi ESE 3.5 mph - N/A   Clear
10:15 PM -4.0 °F - -4.0 °F 100% 30.30 in 10.0 mi Calm Calm - N/A   Clear
10:35 PM -4.0 °F -12.4 °F -7.6 °F 85% 30.30 in 8.0 mi ESE 3.5 mph - N/A   Clear
10:55 PM -5.8 °F -14.5 °F -7.6 °F 92% 30.30 in 10.0 mi SE 3.5 mph - N/A   Mostly Cloudy
11:15 PM -5.8 °F -14.5 °F -5.8 °F 100% 30.31 in 10.0 mi SE 3.5 mph - N/A   Scattered Clouds
11:35 PM -4.0 °F - -7.6 °F 85% 30.32 in 10.0 mi Calm Calm - N/A   Scattered Clouds
11:55 PM -5.8 °F -23.4 °F -9.4 °F 84% 30.32 in 10.0 mi SE 10.4 mph - N/A   Clear